軌道要素
Epoch 2012 Sept. 30.0 TT = JDT 2456200.5
T 2012 Sept. 10.92731 TT Rudenko
q 2.4107544 (2000.0) P Q
n 0.17600998 Peri. 300.59117 +0.88003715 -0.43467462
a 3.1533912 Node 85.77452 +0.47421279 +0.78257564
e 0.2355042 Incl. 11.05862 +0.02562907 +0.44568300
P 5.60
From 182 observations 2001 Dec. 9-2017 Aug. 17, mean residual 0".4.
|